This is the latest recevied weather packets stored in our database for station/object KC3ELT-10. If no packets are shown the sender has not sent any weather packets the latest 10 day(s).
| Time | Temp. | Humidity | Pressure | Rain* | Wind** | Luminosity | Snow |
|---|---|---|---|---|---|---|---|
| 1788616063 | 21.67° C | 66% | 1006.2 hPa | 0 mm | 1.34 m/s, 0° | - | - |
| 1788615763 | 21.67° C | 67% | 1006.1 hPa | 0 mm | 0 m/s | - | - |
| 1788615463 | 21.11° C | 68% | 1006.1 hPa | 0 mm | 1.34 m/s, 4° | - | - |
| 1788615163 | 21.11° C | 67% | 1006.1 hPa | 0 mm | 0.45 m/s, 29° | - | - |
| 1788614863 | 21.11° C | 70% | 1006.1 hPa | 0 mm | 0 m/s | - | - |
| 1788614563 | 21.11° C | 70% | 1006.1 hPa | 0 mm | 0 m/s | - | - |
| 1788614263 | 20.56° C | 71% | 1006.1 hPa | 0 mm | 0.89 m/s, 8° | - | - |
| 1788613963 | 20.56° C | 72% | 1006 hPa | 0 mm | 0.89 m/s, 19° | - | - |
| 1788613663 | 20° C | 74% | 1006 hPa | 0 mm | 0.45 m/s, 10° | - | - |
| 1788613363 | 20° C | 75% | 1006 hPa | 0 mm | 0 m/s | - | - |
| 1788613063 | 19.44° C | 75% | 1006.2 hPa | 0 mm | 0.89 m/s, 1° | - | - |
| 1788612763 | 19.44° C | 75% | 1006.2 hPa | 0 mm | 0.45 m/s, 51° | - | - |
| 1788612463 | 19.44° C | 75% | 1006.2 hPa | 0 mm | 1.34 m/s, 19° | - | - |
| 1788612163 | 19.44° C | 76% | 1006.3 hPa | 0 mm | 0.89 m/s, 316° | - | - |
| 1788611863 | 19.44° C | 76% | 1006.3 hPa | 0 mm | 1.34 m/s, 6° | - | - |
| 1788611563 | 19.44° C | 76% | 1006.3 hPa | 0 mm | 0.89 m/s, 13° | - | - |
| 1788611263 | 18.89° C | 76% | 1006.3 hPa | 0 mm | 0.89 m/s, 13° | - | - |
| 1788610963 | 18.89° C | 76% | 1006.3 hPa | 0 mm | 0.89 m/s, 28° | - | - |
| 1788610663 | 18.89° C | 76% | 1006.3 hPa | 0 mm | 0.45 m/s, 32° | - | - |
| 1788610362 | 18.89° C | 76% | 1006.3 hPa | 0 mm | 1.34 m/s, 1° | - | - |
| 1788610063 | 18.89° C | 76% | 1006.3 hPa | 0 mm | 0.89 m/s, 8° | - | - |
| 1788609763 | 18.89° C | 76% | 1006.3 hPa | 0 mm | 0.45 m/s, 19° | - | - |
| 1788609463 | 18.89° C | 76% | 1006.3 hPa | 0 mm | 0.89 m/s, 0° | - | - |
| 1788609163 | 18.89° C | 76% | 1006.3 hPa | 0 mm | 0.89 m/s, 0° | - | - |
| 1788608863 | 18.89° C | 76% | 1006.3 hPa | 0 mm | 0.89 m/s, 355° | - | - |
* Rain latest hour (hover to see other rain measurements)
** Current wind speed in m/s (hover to see current wind gust speed)